#timestamp,LO_Frequency,Hit,StdDev 
1501927215.8,286047000.0,N,1.1
1501927235.6,286047002.7,N,1.1
1501927255.5,286047002.8,N,1.1
1501927275.3,286047002.5,N,1.1
1501927295.1,286047002.8,N,1.1
1501927315.9,286047002.7,N,1.1
1501927335.7,286047002.1,N,1.1
1501927355.6,286047001.6,N,1.0
1501927375.4,286047002.2,N,1.0
1501927395.2,286047002.0,N,0.9
1501927415.1,286047001.9,N,0.8
1501927416.0,286047001.9,N,0.8
1501927435.8,286047002.0,N,0.7
1501927455.7,286047001.6,N,0.7
1501927475.5,286047004.4,Y,0.0
1501927495.3,286047001.1,P,0.5
1501927515.2,286046998.1,P,1.7
1501927535.0,286046998.1,N,1.8
1501927535.9,286046998.1,N,1.7
1501927555.8,286047001.0,N,1.7
1501927575.6,286047000.8,N,1.6
1501927595.4,286046998.3,N,1.6
1501927615.3,286047001.0,N,1.6
1501927635.1,286047001.2,N,1.5
1501927655.9,286047000.6,N,1.5
1501927675.7,286047002.8,N,1.6
1501927695.5,286046998.2,N,1.6
1501927715.4,286047001.0,N,1.6
1501927735.2,286047001.0,N,1.5
1501927755.0,286047002.7,N,1.6
1501927756.0,286047002.7,N,1.7
1501927775.8,286047000.9,N,1.6
1501927795.6,286047000.7,N,1.6
1501927815.5,286047000.9,N,1.5
1501927835.3,286047000.7,N,1.5
1501927855.2,286047000.9,N,1.5
1501927875.9,286047000.3,N,1.4
1501927895.7,286047001.1,N,1.4
1501927915.6,286046998.1,N,1.5
1501927935.4,286047000.8,N,1.4
1501927955.3,286046998.9,N,1.4
1501927975.1,286046998.7,N,1.5
1501927976.0,286046998.7,N,1.5
1501927995.8,286046998.8,N,1.5
1501928015.7,286047000.8,N,1.4
1501928035.5,286047000.3,N,1.4
1501928055.4,286046999.8,N,1.4
1501928075.2,286046999.9,N,1.3
1501928095.0,286047000.8,N,1.2
1501928095.9,286047000.8,N,1.2
1501928115.8,286047001.2,N,1.2
1501928135.6,286047000.6,N,1.2
1501928155.5,286047001.2,N,1.2
1501928175.3,286047001.0,N,1.2
1501928195.1,286047000.9,N,1.2
1501928215.9,286047000.6,N,1.1
1501928235.7,286047000.5,N,1.0
1501928255.5,286047000.3,N,1.0
1501928275.4,286047000.4,N,1.0
1501928295.2,286047001.2,N,0.9
1501928315.1,286046999.8,N,0.8
1501928316.0,286046999.8,N,0.8
1501928335.8,286047002.4,N,0.9
1501928355.7,286047002.7,N,1.0
1501928375.5,286047000.1,N,1.0
1501928395.3,286047000.9,N,1.0
1501928415.2,286047001.0,N,1.0
1501928435.0,286047000.4,N,1.0
1501928435.9,286047000.4,N,0.9
1501928455.7,286046998.2,N,1.0
1501928475.6,286046998.5,N,1.0
1501928495.4,286046998.2,N,1.0
1501928515.3,286047001.0,N,1.0
1501928535.1,286046998.1,N,1.1
1501928555.8,286047001.2,N,1.1
1501928575.7,286046999.9,N,1.1
1501928595.5,286047000.9,N,1.1
1501928615.4,286047000.8,N,1.1
1501928635.2,286046998.5,N,1.1
1501928655.0,286047000.6,N,1.1
1501928655.9,286047000.6,N,1.1
1501928675.8,286047001.0,N,1.1
1501928695.6,286047000.6,N,1.1
1501928715.5,286047000.6,N,1.1
1501928735.3,286047000.9,N,1.1
1501928755.1,286046998.6,N,1.1
1501928775.9,286046998.1,N,1.2
1501928795.7,286047000.7,N,1.2
1501928815.6,286047000.0,N,1.2
1501928835.4,286047000.5,N,1.2
1501928855.2,286047000.0,N,1.2
1501928875.1,286047000.6,N,1.2
1501928876.0,286047000.6,N,1.1
1501928895.8,286047000.8,N,1.0
1501928915.7,286047000.0,N,1.0
1501928935.5,286047000.4,N,1.0
1501928955.3,286047000.4,N,1.0
1501928975.2,286047001.0,N,1.0
1501928995.0,286046998.1,N,1.1
1501928995.9,286046998.1,N,1.1
1501929015.8,286047000.0,N,1.0
1501929035.6,286047000.8,N,1.0
1501929055.4,286047000.3,N,1.0
1501929075.3,286047000.8,N,0.9
1501929095.1,286047000.8,N,0.9
1501929115.8,286047001.1,N,0.9
1501929135.7,286046998.8,N,0.9
1501929155.5,286046998.1,N,1.0
1501929175.4,286046998.5,N,1.0
1501929195.2,286046998.7,N,1.0
1501929215.0,286046999.3,N,1.0
1501929215.9,286046999.3,N,1.0
1501929235.8,286046996.6,Y,0.0
1501929255.6,286046998.7,P,0.6
1501929275.5,286046999.4,N,0.5
1501929295.3,286046997.2,P,1.0
1501929315.2,286046997.0,N,1.2
1501929335.9,286046997.7,N,1.1
1501929355.7,286046996.8,N,1.1
1501929375.6,286046997.9,N,1.1
1501929395.4,286046994.9,Y,0.0
1501929415.3,286046997.0,P,0.5
1501929435.1,286046997.8,P,0.5
1501929436.0,286046997.8,P,0.4
1501929455.8,286046997.8,Y,0.0
1501929475.7,286046998.3,P,0.3
1501929495.5,286046998.8,P,0.5
1501929515.4,286046998.1,P,0.4
1501929535.2,286046998.1,Y,0.0
1501929555.0,286046999.9,P,0.8
1501929555.9,286046999.9,N,0.8
1501929575.8,286047001.2,N,1.1
1501929595.6,286047001.0,N,1.1
1501929615.5,286047002.4,N,1.3
1501929635.3,286046999.7,N,1.2
1501929655.1,286047000.3,N,1.2
1501929675.9,286047000.7,N,1.1
1501929695.7,286046998.1,N,1.2
1501929715.5,286046998.5,N,1.3
1501929735.4,286047001.2,N,1.3
1501929755.2,286046999.0,N,1.3
1501929775.1,286046998.9,N,1.2
1501929776.0,286046998.9,N,1.2
1501929795.8,286046996.9,N,1.4
1501929815.6,286046996.7,N,1.5
1501929835.5,286046997.0,N,1.6
1501929855.3,286046997.6,N,1.6
1501929875.2,286046996.7,N,1.6
1501929895.9,286046996.7,N,1.7
1501929915.7,286046997.4,N,1.7
1501929935.6,286046997.8,N,1.7
1501929955.4,286046997.8,N,1.6
1501929975.2,286046997.2,N,1.6
1501929995.1,286046997.1,N,1.6
1501929996.0,286046997.1,N,1.6
1501930015.8,286046997.3,N,1.6
1501930035.7,286046999.1,N,1.6
1501930055.5,286046997.2,N,1.6
1501930075.3,286046997.8,N,1.6
1501930095.2,286046995.1,Y,0.0
1501930115.0,286046997.4,P,0.6
1501930115.9,286046997.4,P,0.6
1501930135.8,286046996.8,P,0.6
1501930155.6,286046996.8,Y,0.0
1501930175.5,286046998.5,P,0.5
1501930195.3,286046998.4,P,0.4
1501930215.1,286046998.7,P,0.4
1501930235.9,286047000.7,N,1.0
1501930255.7,286046999.0,N,1.0
1501930275.5,286047000.7,N,1.1
1501930295.4,286047001.0,N,1.2
1501930315.2,286047001.2,N,1.3
1501930335.1,286046998.3,N,1.3
1501930336.0,286046998.3,N,1.3
1501930355.8,286046998.9,N,1.2
1501930375.6,286046998.5,N,1.2
1501930395.5,286046999.0,N,1.1
1501930415.3,286046996.9,N,1.2
1501930435.2,286046999.6,N,1.2
1501930455.9,286046997.0,N,1.3
1501930475.7,286046997.3,N,1.3
1501930495.6,286046997.7,N,1.3
1501930515.4,286046996.6,N,1.3
1501930535.3,286046997.2,N,1.3
1501930555.1,286046996.7,N,1.4
1501930556.0,286046996.7,N,1.4
1501930575.8,286046997.6,N,1.4
1501930595.7,286046997.8,N,1.4
1501930615.5,286046995.8,Y,0.0
1501930635.4,286046999.5,P,0.6
1501930655.2,286046999.0,N,0.5
1501930675.0,286046999.0,N,0.4
1501930675.9,286046999.0,N,0.4
1501930695.8,286046998.9,Y,0.0
1501930715.6,286047001.0,P,1.0
1501930735.5,286047002.3,N,1.4
1501930755.3,286046999.9,N,1.2
1501930775.1,286047000.6,N,1.1
1501930795.9,286046999.8,N,1.1
